Weather in Topsa

Russia / Arkhangel'skaya Oblast'     62°35′52″N   43°37′45″E
temp.,
°C
wind,
m/s
gust,
m/s
humid.,
%
clouds,
%
prec.,
mm/h
press.,
hPa
HPBL,
m
8 march, mon
mon800:00−15ene3893100 0.0 1001252
03:00−16ne41091100 0.0 1002285
06:00−19ne399484 0.0 1002263
09:00−18ne379169 0.0 1004328
12:00−15nne368780 0.0 1006471
15:00−15n478689 0.0 1007590
18:00−19n3893100 0.0 1010262
21:00−23n379591 0.0 1012230
9 march, tue
tue900:00−27n259581 0.0 1014120
03:00−30n259451 0.0 101696
06:00−31n23950 0.0 101867
09:00−28n24915 0.0 1020287
12:00−22nnw248745 0.0 1021442
15:00−19nw258645 0.0 1021540
18:00−23wnw239792 0.0 102262
21:00−23wnw249894 0.1 102397
10 march, wed
wed1000:00−25w229988 0.0 102219
03:00−25w229892 0.0 102220
06:00−25wnw2299100 0.1 102220
09:00−22wnw139598 0.1 1023193
12:00−17nw238699 0.0 1023382
15:00−14w248874 0.0 1023335
18:00−15w259753 0.0 1023105
21:00−12nw4109476 0.1 1023425
11 march, thu
thu1100:00−15nw4108981 0.0 1023334
03:00−17nw3109590 0.0 1024284
06:00−20wnw399449 0.0 1025219
09:00−17wnw388628 0.0 1025330
12:00−10wnw49750 0.0 1024588
15:00−8w510720 0.0 1023972
18:00−11wsw3108440 0.0 1021305
21:00−12wsw4138764 0.0 1021449
12 march, fri
fri1200:00−12wsw31289100 0.0 1019577
03:00−12sw31091100 0.0 1018500
06:00−12wsw31093100 0.0 1017495
09:00−11wsw4991100 0.1 1017462
12:00−7sw4888100 0.0 1017534
15:00−4sw4108179 0.0 1016722
18:00−7ssw3128612 0.0 1015389
21:00−8ssw4138834 0.0 1016507